Retour au catalogue

STARLINK-33898

ActifCommunicationsVLEO
NORAD 64002·PAYLOAD·🇺🇸 United States

Lancé May 14, 2025 depuis Cape Canaveral Space Force Station

Loading…

Prochains Passages (prochaines 24 heures)

TLE

FraisSource: CelesTrak SupGP

Époque: Sep 14, 2026, 22:50 UTC

1 64002C 25101J   26257.95187500 -.00005561  00000+0 -20168-3 0  2573
2 64002  43.0015   9.4526 0001596 273.7209 189.5554 15.27536477    19

Suivez STARLINK-33898 en temps réel avec AllMySat

Download on the App Store